Regional Weather Roundup
Issued by NWS

Home | Current Version | Previous Version | Graphics & Text | Print | Product List | Glossary On
Versions: 1 2 3 4 5 6 7 8 9 10 11 12 13 14 15 16 17 18 19 20 21 22 23 24 25 26 27 28 29 30 31 32 33 34 35 36 37 38 39 40 41 42 43 44 45 46 47 48 49 50
000
ASUS43 KMPX 280301
RWRMN
WEATHER ROUNDUP FOR MINNESOTA
NATIONAL WEATHER SERVICE TWIN CITIES/CHANHASSEN MN
1000 PM CDT SAT AUG 27 2016


NOTE: "FAIR" INDICATES FEW OR NO CLOUDS BELOW 12,000 FEET WITH NO
SIGNIFICANT WEATHER AND/OR OBSTRUCTIONS TO VISIBILITY. N/A MEANS
CURRENT SKY AND/OR WEATHER CONDITIONS ARE NOT AVAILABLE.

MNZ060>063-068>070-280400-
   Twin Cities Metro

CITY           SKY/WX    TMP DP  RH WIND       PRES   REMARKS
TWIN CITIES    PTCLDY    65  61  87 CALM      30.06R
ST PAUL        CLEAR     64  62  93 NE3       30.06R
CRYSTAL        FOG       60  57  89 CALM      30.05R VSB 3/4
BLAINE         FOG       63  63 100 CALM      30.06R VSB 1/4
LAKEVILLE      FOG       59  59 100 CALM      30.06R VSB 1/4
EDEN PRAIRIE   CLEAR     64  61  90 CALM      30.04R
LAKEVILLE      FOG       59  59 100 CALM      30.06R VSB 1/4
SOUTH ST PAUL  CLEAR     64  63  98 CALM      30.06R
LAKE ELMO      FAIR      61  61 100 CALM      30.07R FOG
$$
MNZ001>005-007-008-013>017-022>024-027-028-280400-
   Northwest Minnesota

CITY           SKY/WX    TMP DP  RH WIND       PRES   REMARKS
BEMIDJI        CLOUDY    56  55  96 SE5       30.01R
HALLOCK        CLEAR     59  57  94 SE7       29.94R
ROSEAU         CLEAR     57  52  82 E3        29.98R
WARROAD        CLEAR     57  54  88 CALM      29.99R
THIEF RVR FALL CLEAR     58  57  97 SE5       29.98R
CROOKSTON      CLEAR     57  54  88 S7        29.97R
FOSSTON        CLEAR     54  54 100 SE5       29.99S
DETROIT LAKES  PTCLDY    64  59  82 SW7       30.01R
MOORHEAD       PTCLDY    63  55  77 E5        30.00R
PARK RAPIDS    CLOUDY    63  58  83 S8        30.01R
MAHNOMEN       FAIR      59  57  92 S5        29.98S
$$
MNZ006-009>011-018-025>026-280400-
   North Central Minnesota

CITY           SKY/WX    TMP DP  RH WIND       PRES   REMARKS
BAUDETTE       PTCLDY    56  55  97 SE7       29.99R
FLAG ISLAND    PTCLDY    63  57  82 CALM      29.97R
INTL FALLS     MOCLDY    54  53  97 SE3       30.02S
WASKISH        MOCLDY    54  54 100 SE5       30.01R
BIG FORK       CLOUDY    54  54 100 SE3       30.03S
LONGVILLE      CLOUDY    59  57  94 E5        30.02S
GRAND RAPIDS   CLOUDY    54  54 100 SE5       30.06S
ORR            CLEAR     52  48  87 CALM      30.02S
COOK           FOG       52  52 100 CALM      30.05S VSB 1/2
WALKER         FAIR      61  57  87 S5        30.01R
$$
MNZ012-019>021-037-280400-
   Northeast Minnesota

CITY           SKY/WX    TMP DP  RH WIND       PRES   REMARKS
DULUTH         CLOUDY    58  56  93 N6        30.06S
ELY            CLOUDY    57  55  94 SE8       30.04F
HIBBING        PTCLDY    50  50 100 CALM      30.06R FOG
EVELETH        CLEAR     53  52  97 CALM      30.06S FOG
DULUTH HARBOR  CLOUDY    61  57  88 N10       30.05S
TWO HARBORS    CLOUDY    63  57  82 CALM      30.04S
SILVER BAY     DRIZZLE   61  59  94 CALM      30.05S
G MARAIS ARPRT CLOUDY    54  48  82 CALM      30.09S
$$
MNZ029>031-032-039>041-046>048-054>057-064-280400-
   West Central Minnesota

CITY           SKY/WX    TMP DP  RH WIND       PRES   REMARKS
FERGUS FALLS   CLEAR     63  59  88 SE7       30.02S
MORRIS         PTCLDY    61  61 100 SE6       30.02R
ALEXANDRIA     CLEAR     60  58  92 SE6       30.05R
ELBOW LAKE     FAIR      62  59  91 E6        30.02R
WADENA         CLEAR     55  54  94 S6        30.02F
GLENWOOD       CLEAR     57  55  94 CALM      30.05R
APPLETON       CLEAR     64  59  82 SE7       30.02R
BENSON         CLEAR     64  57  77 SE7       30.03R
ORTONVILLE     CLEAR     64  59  82 SE8       30.01R
MADISON        CLEAR     63  61  94 SE7       30.02R
WILLMAR        FAIR      61  59  94 E5        30.06R
$$
MNZ033>034-036-042>043-049>051-058-059-280400-
   Central Minnesota

CITY           SKY/WX    TMP DP  RH WIND       PRES   REMARKS
ST CLOUD       FOG       61  61 100 SE5       30.05S VSB 1/2
SAUK CENTRE    FAIR      56  56  97 CALM      30.05R
PAYNESVILLE    CLEAR     60  60 100 SE5       30.06R
AITKIN         PTCLDY    61  55  82 S5        30.03S
PINE RIVER     PTCLDY    61  59  94 E5        30.06R
BRAINERD       MOCLDY    57  57 100 S5        30.04S
STAPLES        CLEAR     57  55  94 S6        30.03S
LONG PRAIRIE   FAIR      55  55 100 CALM      30.05R
LITTLE FALLS   CLEAR     57  55  94 SE3       30.05R FOG
LITCHFIELD     CLEAR     63  63 100 SE3       30.06R
BUFFALO        CLOUDY    62  60  93 CALM      30.07R
MAPLE LAKE     MOCLDY    61  60  98 CALM      30.07R FOG
HUTCHINSON     CLEAR     60  60  99 CALM      30.07R
$$
MNZ037-044-045-052-053-280400-
   East Central Minnesota

CITY           SKY/WX    TMP DP  RH WIND       PRES   REMARKS
PRINCETON        N/A     64  63  94 CALM      30.06R
MORA           CLOUDY    59  59 100 CALM      30.07R
CAMBRIDGE      HAZE      64  59  82 CALM      30.04R VSB 1/2
RUSH CITY      LGT RAIN  62  61  96 CALM      30.06R
MOOSE LAKE     CLOUDY    61  59  94 CALM      30.04R
HINCKLEY       CLOUDY    61  61 100 CALM      30.06S
CLOQUET        CLOUDY    61  57  88 CALM      30.06S
MCGREGOR       CLOUDY    61  59  94 SE5       30.05S
$$
MNZ071>073-080-081-089-090-097-098-280400-
   Southwest Minnesota

CITY           SKY/WX    TMP DP  RH WIND       PRES   REMARKS
MONTEVIDEO     CLEAR     61  59  94 S6        30.05R
GRANITE FALLS  CLEAR     65  62  89 E5        30.05R
CANBY          CLEAR     64  62  93 E7        30.03R
MARSHALL       CLEAR     65  63  93 SE5       30.04R
REDWOOD FALLS  CLEAR     66  61  84 E3        30.04R
OLIVIA         CLEAR     63  59  88 CALM      30.04R
WINDOM         CLEAR     61  61 100 CALM      30.05R
WORTHINGTON    CLEAR     64  62  93 S6        30.06R
JACKSON          N/A     63  59  88 CALM      30.07R
TRACY          CLEAR     64  63  96 S5        30.04R
SLAYTON        CLEAR     61  61 100 CALM      30.06R
$$
MNZ065>067-074>077-082>085-091>093-280400-
   South Central Minnesota

CITY           SKY/WX    TMP DP  RH WIND       PRES   REMARKS
MANKATO        CLEAR     64  63  94 SE3       30.06R
NEW ULM          N/A     64  63  94 CALM      30.05R
ST JAMES       CLEAR     57  57 100 CALM      30.06R
FAIRMONT       CLEAR     63  62  97 CALM      30.06R
GLENCOE        CLEAR     63  63  99 CALM      30.05R
FARIBAULT      FOG       61  59  94 CALM      30.06S VSB 1/2
OWATONNA       CLOUDY    66  63  88 CALM      30.07R
WASECA         CLEAR     63  61  94 E3        30.08R
ALBERT LEA     FOG       64  64 100 CALM      30.07R VSB 3/4
$$
MNZ078>079-086>088-094>096-280400-
   Southeast Minnesota

CITY           SKY/WX    TMP DP  RH WIND       PRES   REMARKS
ROCHESTER      MOCLDY    67  65  93 CALM      30.09R
RED WING       FOG       64  64 100 CALM      30.05R VSB 1/4
DODGE CENTER   CLOUDY    64  63  94 CALM      30.08R
WINONA         CLOUDY    68  66  94 CALM      30.07R
AUSTIN         CLOUDY    66  64  94 CALM      30.07R
PRESTON        CLOUDY    66  64  91 S3        30.09R
$$
ABBREVIATIONS USED IN REMARKS
   TC - TEMPERATURES IN CELSIUS
  WCI - WIND CHILL INDEX
   HX - HEAT INDEX
  VSB - VISIBILITY
$$




USA.gov is the U.S. government's official web portal to all federal, state and local government web resources and services.